Flag for U.S.A. Weather past 2 weeks in Petersburg, Indiana, U.S.A.

Now
61 °F

Passing clouds.


Feels Like: 61 °F
Forecast: 59 / 78 °F
Wind: 7 mph from North

Location: Huntingburg Airport

Current Time: Jul 24, 2014 at 6:58:32 AM

Latest Report: Jul 24, 2014 at 6:35 AM


Visibility: 10 mi

Pressure: 30.02 "Hg

Humidity: 83%

Dew point: 55 °F

Location of PetersburgLocation

Historic Weather in Petersburg — Graph

°F

Petersburg temperature yesterday

Maximum temperature yesterday: 82 °F (at 4:35 PM)
Minimum temperature yesterday: 70 °F (at 3:55 AM)
Average temperature yesterday: 75 °F

Past Weeks' High & Low Weather Summary

 TemperatureHumidityPressure
High91 °F (Jul 13, 2:15 PM)94% (Jul 16, 6:15 AM)30.22 "Hg (Jul 16, 6:15 AM)
Low54 °F (Jul 16, 5:35 AM)35% (Jul 11, 4:55 PM)29.85 "Hg (Jul 14, 3:55 PM)
Average73 °F70%30.05 "Hg
* Reported Jul 9 8:55 AM — Jul 24 5:35 AM, Petersburg, Weather by CustomWeather, © 2014

Note: Actual official high and low records may vary slightly from our data, if they occured in-between our weather recording intervals... More about our weather records

Advertising

Petersburg weather history for previous 24 hours

 ConditionsComfort  
Time TempWeatherWind HumidityBarometerVisibility
5:35 AM
Jul 24
63 °FMostly cloudy.9 mph77%30.02 "Hg10 mi
5:15 AM63 °FPassing clouds.10 mph77%30.01 "Hg10 mi
4:55 AM63 °FPassing clouds.10 mph77%30.01 "Hg10 mi
4:35 AM63 °FPassing clouds.9 mph77%30.00 "Hg10 mi
4:15 AM64 °FPassing clouds.7 mph73%30.00 "Hg10 mi
3:55 AM64 °FPassing clouds.9 mph78%30.01 "Hg10 mi
3:35 AM64 °FPassing clouds.8 mph78%30.01 "Hg10 mi
3:15 AM64 °FMostly cloudy.8 mph78%30.01 "Hg10 mi
2:55 AM66 °FOvercast.10 mph73%30.01 "Hg10 mi
2:35 AM66 °FOvercast.10 mph73%30.01 "Hg10 mi
1:35 AM68 °FOvercast.8 mph69%30.03 "Hg10 mi
1:15 AM68 °FMostly cloudy.9 mph69%30.04 "Hg10 mi
12:55 AM70 °FMostly cloudy.9 mph64%30.04 "Hg10 mi
12:35 AM70 °FPassing clouds.13 mph73%30.04 "Hg10 mi
12:15 AM72 °FPassing clouds.12 mph69%30.03 "Hg10 mi
11:55 PM
Jul 23
72 °FPassing clouds.8 mph69%30.03 "Hg10 mi
11:35 PM72 °FMostly cloudy.13 mph78%30.03 "Hg10 mi
10:55 PM73 °FOvercast.8 mph78%30.03 "Hg9 mi
10:35 PM73 °FOvercast.8 mph78%30.03 "Hg10 mi
10:15 PM73 °FOvercast.10 mph78%30.03 "Hg8 mi
9:55 PM73 °FOvercast.7 mph78%30.03 "Hg10 mi
9:35 PM73 °FOvercast.8 mph78%30.02 "Hg10 mi
8:55 PM73 °FOvercast.8 mph83%30.02 "Hg7 mi
8:35 PM73 °FOvercast.12 mph83%30.00 "Hg7 mi
8:15 PM75 °FPartly sunny.12 mph83%29.99 "Hg7 mi
7:55 PM77 °FScattered clouds.13 mph79%29.99 "Hg8 mi
7:35 PM79 °FBroken clouds.7 mph74%29.98 "Hg7 mi
7:15 PM79 °FMostly cloudy.8 mph74%29.98 "Hg9 mi
6:55 PM81 °FPartly sunny.7 mph70%29.99 "Hg9 mi
6:35 PM82 °FPassing clouds.8 mph70%29.98 "Hg8 mi
6:15 PM81 °FSunny.6 mph70%29.99 "Hg7 mi
5:55 PM81 °FSunny.7 mph70%29.99 "Hg8 mi
5:35 PM82 °FPassing clouds.10 mph66%29.99 "Hg10 mi
4:55 PM82 °FScattered clouds.9 mph66%30.00 "Hg10 mi
4:35 PM82 °FScattered clouds.8 mph70%30.00 "Hg10 mi
4:15 PM81 °FSunny.8 mph70%30.00 "Hg10 mi
3:55 PM81 °FSunny.8 mph70%30.01 "Hg10 mi
3:15 PM81 °FSunny.5 mph70%30.01 "Hg10 mi
2:55 PM81 °FSunny.5 mph70%30.02 "Hg10 mi
2:35 PM81 °FSunny.5 mph70%30.02 "Hg10 mi
2:15 PM79 °FSunny.3 mph70%30.02 "Hg10 mi
1:55 PM77 °FSunny.No wind74%30.04 "Hg10 mi
1:35 PM75 °FSunny.5 mph78%30.05 "Hg10 mi
1:15 PM73 °FSunny.No wind83%30.07 "Hg10 mi
12:55 PM73 °FSunny.6 mph89%30.07 "Hg10 mi
12:35 PM73 °FSunny.No wind83%30.06 "Hg10 mi
12:15 PM73 °FScattered clouds.10 mph83%30.07 "Hg9 mi
11:55 AM73 °FScattered clouds.21 mph89%30.05 "Hg8 mi
11:35 AM73 °FBroken clouds.10 mph83%29.99 "Hg8 mi
11:15 AM73 °FBroken clouds.10 mph89%30.05 "Hg5 mi
10:55 AM73 °FSunny.No wind89%30.09 "Hg5 mi
10:35 AM73 °FSunny.5 mph89%30.08 "Hg5 mi
9:55 AM73 °FScattered clouds.5 mph83%30.06 "Hg5 mi
9:35 AM73 °FPartly sunny.8 mph83%30.05 "Hg5 mi
9:15 AM73 °FScattered clouds.5 mph83%30.06 "Hg5 mi
8:35 AM73 °FPassing clouds.5 mph89%30.07 "Hg5 mi
7:55 AM72 °FSunny.3 mph94%30.08 "Hg3 mi
7:35 AM72 °FPassing clouds.No wind83%30.05 "Hg2 mi
7:15 AM70 °FClear.5 mph88%30.05 "Hg2 mi
6:55 AM70 °FClear.No wind88%30.01 "Hg3 mi
6:35 AM72 °FClear.No wind83%30.02 "Hg5 mi
Weather by CustomWeather, © 2014

See weather overviewHow to use our weather pages